Total_Precipitation_Accumulation
1.11 0.99 0.84 0.78 0.72 0.64 0.63 0.63 0.56 0.51 0.47 0.46 0.43 0.37 0.33 0.30 0.26 0.24 0.22 0.21 0.23 0.35 0.51 0.66 0.72 0.70 0.72 0.75 0.68 0.66 0.64 0.64 0.63 0.63 0.60 0.56 0.55 0.53 0.54 0.55 0.55 0.56 0.59
1.30 1.21 1.09 0.98 0.90 0.83 0.75 0.71 0.62 0.58 0.53 0.49 0.45 0.41 0.39 0.35 0.31 0.27 0.22 0.18 0.18 0.22 0.36 0.59 0.84 0.94 0.97 1.02 0.93 0.88 0.83 0.76 0.75 0.71 0.68 0.65 0.63 0.61 0.62 0.64 0.63 0.65 0.69
1.38 1.36 1.26 1.13 0.98 0.99 0.98 0.94 0.82 0.71 0.65 0.57 0.50 0.45 0.42 0.39 0.35 0.31 0.29 0.25 0.20 0.19 0.26 0.42 0.69 0.90 0.99 1.10 1.14 1.10 1.01 0.89 0.84 0.81 0.78 0.76 0.72 0.69 0.69 0.72 0.74 0.77 0.79
1.39 1.44 1.35 1.27 1.20 1.09 1.06 1.04 0.97 0.85 0.77 0.74 0.65 0.59 0.54 0.45 0.37 0.32 0.30 0.31 0.31 0.27 0.25 0.31 0.44 0.62 0.81 0.97 1.18 1.31 1.30 1.13 0.97 0.88 0.85 0.84 0.83 0.83 0.84 0.85 0.84 0.86 0.86
1.54 1.49 1.36 1.28 1.36 1.30 1.14 1.12 1.07 0.92 0.80 0.74 0.73 0.69 0.65 0.58 0.48 0.41 0.33 0.29 0.29 0.30 0.31 0.33 0.34 0.39 0.52 0.70 0.96 1.21 1.32 1.32 1.18 1.01 0.92 0.88 0.90 0.94 0.99 1.02 0.99 0.95 0.96
1.61 1.65 1.52 1.42 1.43 1.44 1.29 1.17 1.13 1.02 0.88 0.85 0.82 0.76 0.74 0.75 0.66 0.57 0.49 0.40 0.33 0.30 0.31 0.33 0.34 0.33 0.37 0.49 0.67 0.88 1.10 1.24 1.28 1.23 1.14 1.09 1.08 1.10 1.17 1.21 1.19 1.17 1.19
1.61 1.68 1.66 1.57 1.51 1.41 1.36 1.30 1.25 1.15 1.00 0.97 0.96 0.81 0.70 0.72 0.73 0.66 0.60 0.51 0.45 0.41 0.38 0.37 0.39 0.39 0.38 0.42 0.48 0.59 0.74 0.92 1.09 1.21 1.22 1.21 1.22 1.24 1.26 1.32 1.36 1.36 1.40
1.69 1.62 1.64 1.68 1.64 1.53 1.47 1.42 1.39 1.29 1.14 1.09 1.08 1.05 0.84 0.68 0.62 0.59 0.58 0.54 0.50 0.49 0.49 0.49 0.48 0.48 0.47 0.45 0.43 0.47 0.53 0.69 0.95 1.22 1.36 1.37 1.42 1.43 1.45 1.51 1.58 1.63 1.69
1.75 1.63 1.59 1.67 1.69 1.64 1.60 1.62 1.64 1.57 1.44 1.35 1.25 1.31 1.12 0.80 0.61 0.55 0.55 0.54 0.52 0.51 0.53 0.55 0.55 0.53 0.53 0.53 0.50 0.51 0.56 0.65 0.88 1.21 1.48 1.59 1.64 1.68 1.78 1.87 1.94 2.01 2.00
1.79 1.74 1.68 1.66 1.66 1.65 1.61 1.67 1.78 1.81 1.77 1.66 1.52 1.35 1.20 0.99 0.87 0.68 0.56 0.55 0.56 0.55 0.57 0.58 0.60 0.59 0.58 0.59 0.61 0.65 0.70 0.78 0.93 1.22 1.57 1.84 2.02 2.17 2.28 2.37 2.43 2.45 2.38
1.82 1.73 1.67 1.65 1.58 1.56 1.58 1.61 1.68 1.79 1.81 1.72 1.61 1.50 1.39 1.17 0.97 0.88 0.66 0.53 0.54 0.54 0.55 0.54 0.53 0.51 0.53 0.59 0.66 0.78 0.89 0.94 1.07 1.32 1.71 2.09 2.37 2.65 2.88 3.00 3.02 2.96 2.85
1.79 1.71 1.63 1.58 1.52 1.47 1.46 1.52 1.61 1.71 1.79 1.74 1.63 1.50 1.43 1.33 1.14 1.05 0.93 0.71 0.65 0.59 0.56 0.56 0.57 0.59 0.59 0.63 0.72 0.91 1.00 1.05 1.18 1.42 1.81 2.14 2.37 2.66 2.88 3.15 3.30 3.24 3.16
1.73 1.55 1.52 1.49 1.47 1.42 1.43 1.49 1.54 1.56 1.63 1.66 1.66 1.56 1.47 1.33 1.21 1.22 1.23 1.07 0.91 0.75 0.68 0.65 0.65 0.70 0.76 0.82 0.88 1.03 1.03 1.07 1.15 1.30 1.61 1.92 2.04 2.17 2.40 2.75 3.09 3.25 3.20
1.85 1.68 1.56 1.54 1.56 1.54 1.50 1.50 1.47 1.45 1.48 1.52 1.55 1.55 1.52 1.41 1.33 1.32 1.37 1.47 1.42 1.17 0.98 0.87 0.84 0.88 0.92 0.98 1.07 1.17 1.07 1.18 1.18 1.21 1.37 1.58 1.64 1.64 1.70 1.90 2.23 2.52 2.76
1.74 1.71 1.65 1.59 1.56 1.57 1.56 1.56 1.50 1.38 1.35 1.38 1.40 1.42 1.40 1.34 1.34 1.37 1.46 1.60 1.79 1.68 1.33 1.06 1.02 1.03 1.06 1.05 1.11 1.02 0.92 1.07 1.12 1.11 1.15 1.23 1.28 1.24 1.24 1.37 1.52 1.65 1.84
1.47 1.52 1.55 1.51 1.47 1.46 1.48 1.51 1.50 1.44 1.35 1.28 1.28 1.33 1.30 1.26 1.28 1.33 1.40 1.48 1.62 1.76 1.58 1.16 0.99 0.96 0.98 0.97 1.04 0.90 0.82 0.97 0.94 0.94 0.99 1.03 1.07 1.04 1.04 1.11 1.20 1.25 1.29
1.33 1.37 1.37 1.35 1.35 1.33 1.33 1.38 1.39 1.37 1.37 1.27 1.19 1.20 1.19 1.15 1.18 1.19 1.23 1.29 1.36 1.44 1.45 1.12 0.89 0.84 0.87 0.83 0.83 0.76 0.72 0.71 0.70 0.81 0.82 0.84 0.86 0.87 0.91 0.96 1.01 1.07 1.11
1.09 1.19 1.22 1.20 1.18 1.16 1.14 1.15 1.19 1.19 1.21 1.20 1.13 1.10 1.07 1.05 1.06 1.06 1.10 1.12 1.14 1.15 1.18 1.07 0.86 0.77 0.72 0.67 0.63 0.59 0.56 0.56 0.54 0.66 0.67 0.68 0.71 0.74 0.75 0.77 0.84 0.89 0.94
0.86 0.94 1.03 1.05 1.05 1.03 0.99 0.97 0.97 0.97 0.97 0.99 1.01 1.02 1.00 1.03 1.07 1.06 1.05 1.01 0.97 0.97 0.99 0.97 0.80 0.68 0.64 0.61 0.61 0.57 0.50 0.46 0.43 0.49 0.54 0.55 0.57 0.61 0.67 0.70 0.72 0.74 0.76
0.79 0.81 0.83 0.89 0.93 0.96 0.97 0.94 0.94 0.95 0.96 0.96 0.98 1.03 1.05 1.06 1.05 1.04 1.03 1.00 0.98 0.99 0.98 0.99 0.92 0.79 0.71 0.65 0.66 0.63 0.57 0.50 0.46 0.43 0.50 0.52 0.55 0.59 0.61 0.62 0.58 0.55 0.55
0.85 0.82 0.84 0.85 0.90 0.95 1.01 1.05 1.07 1.12 1.17 1.20 1.18 1.14 1.12 1.15 1.13 1.08 1.03 1.00 1.01 1.06 1.09 1.12 1.05 0.89 0.74 0.69 0.68 0.63 0.63 0.60 0.57 0.53 0.53 0.50 0.50 0.48 0.48 0.52 0.55 0.55 0.54
0.97 0.91 0.93 0.95 0.99 1.04 1.23 1.24 1.17 1.17 1.24 1.22 1.18 1.10 1.05 1.05 1.02 1.04 1.02 0.99 1.03 1.11 1.20 1.21 1.07 0.86 0.64 0.56 0.59 0.69 0.79 0.90 0.83 0.57 0.55 0.52 0.48 0.50 0.46 0.45 0.52 0.56 0.60
1.01 1.03 1.06 1.12 1.16 1.22 1.31 1.21 1.18 1.08 1.08 1.04 0.99 0.96 0.92 0.90 0.93 0.84 0.91 1.01 1.04 1.11 1.10 1.01 0.91 0.73 0.63 0.58 0.72 0.91 0.92 0.91 0.73 0.52 0.61 0.65 0.54 0.52 0.47 0.50 0.60 0.58 0.59
1.13 1.18 1.22 1.26 1.28 1.29 1.26 1.12 1.04 0.91 0.90 0.89 0.85 0.83 0.81 0.80 0.81 0.83 0.89 0.96 0.88 0.83 0.82 0.77 0.74 0.70 0.67 0.69 0.83 1.01 1.01 0.98 0.83 0.70 0.72 0.83 0.65 0.57 0.50 0.49 0.58 0.59 0.61
1.28 1.26 1.23 1.18 1.13 1.10 1.06 0.94 0.89 0.78 0.76 0.74 0.72 0.73 0.77 0.74 0.84 0.99 1.01 0.95 0.79 0.71 0.75 0.80 0.83 0.81 0.83 0.86 0.89 1.06 1.21 1.28 1.12 0.84 0.74 0.83 0.72 0.65 0.62 0.56 0.55 0.60 0.60
1.17 1.11 1.04 0.98 0.90 0.82 0.84 0.80 0.76 0.69 0.69 0.65 0.63 0.63 0.73 0.74 0.90 1.03 0.92 0.86 0.80 0.72 0.74 0.73 0.72 0.72 0.69 0.72 0.86 0.95 1.25 1.59 1.37 1.04 0.70 0.84 0.84 0.89 1.04 0.69 0.57 0.60 0.63